Location: Berlise
(49.6641°N, 4.1077°E)
Time: 23:51:31
(UTC+00:00)

Okean O Rocket - Pass Details

Date: 27 January 2021
Orbit: 622 x 645 km, 98.2° (Epoch: 01 March)

Event Time Altitude Azimuth Distance (km) Brightness Sun altitude
Rises 06:27:26 0° 14° (NNE) 2,928 5.0 -9.1°
Reaches altitude 10° 06:29:38 10° 15° (NNE) 2,013 4.2 -8.7°
Maximum altitude 06:34:01 88° 99° (E) 632 1.6 -8.0°
Drops below altitude 10° 06:38:22 10° 195° (SSW) 1,989 4.2 -7.4°
Sets 06:40:32 0° 196° (SSW) 2,890 5.1 -7.0°
